Location: Old Broadwell Mill Observatory
(33.8015°N, 85.8137°W)
Time: 03:49:00
(UTC-05:00)

Gurwin Techsat 1B - Visible Passes

Search period start: 25 April 2015 00:00
Search period end: 05 May 2015 00:00
Orbit: 812 x 815 km, 98.5° (Epoch: 23 April)

Date Brightness Start Highest point End Pass type
(mag) Time Alt. Az. Time Alt. Az. Time Alt. Az.
25 Apr 9.3 02:58:22 10° NNE 03:02:43 50° ENE 03:02:43 50° ENE visible
25 Apr 10.3 04:40:01 10° NNW 04:43:09 16° WNW 04:43:56 15° WNW visible
26 Apr 10.1 02:36:01 10° NNE 02:39:48 31° ENE 02:39:48 31° ENE visible
26 Apr 9.7 04:16:17 10° NNW 04:20:37 25° WNW 04:21:01 25° WNW visible
27 Apr 10.8 02:14:07 10° NE 02:16:53 19° E 02:16:53 19° E visible
27 Apr 9.1 03:53:02 10° N 03:58:01 41° WNW 03:58:06 41° WNW visible
28 Apr 11.3 01:53:25 10° ENE 01:53:58 11° E 01:53:58 11° E visible
28 Apr 8.6 03:30:05 10° N 03:35:11 69° WNW 03:35:11 69° WNW visible
29 Apr 8.8 03:07:22 10° NNE 03:12:16 67° ENE 03:12:16 67° ENE visible
29 Apr 10.5 04:49:50 10° NW 04:52:07 12° WNW 04:53:29 11° W visible
30 Apr 9.6 02:44:54 10° NNE 02:49:21 40° E 02:49:21 40° E visible
30 Apr 10.0 04:25:41 10° NNW 04:29:37 21° WNW 04:30:34 20° W visible
01 May 10.4 02:22:46 10° NE 02:26:26 24° E 02:26:26 24° E visible
01 May 9.4 04:02:17 10° N 04:07:02 34° WNW 04:07:39 32° W visible
02 May 11.0 02:01:20 10° ENE 02:03:31 14° E 02:03:31 14° E visible
02 May 8.7 03:39:13 10° N 03:44:25 56° WNW 03:44:43 55° W visible
03 May 8.5 03:16:24 10° NNE 03:21:44 87° E 03:21:48 87° SE visible
04 May 9.2 02:53:49 10° NNE 02:58:52 52° E 02:58:52 52° E visible
04 May 10.2 04:35:11 10° NNW 04:38:36 17° WNW 04:40:05 15° W visible
